TimePST,TemperatureF,Dew PointF,Humidity,Sea Level PressureIn,VisibilityMPH,Wind Direction,Wind SpeedMPH,Gust SpeedMPH,PrecipitationIn,Events,Conditions,WindDirDegrees,DateUTC
12:53 AM,39.0,37.0,93,29.58,10.0,South,5.8,-,N/A,,Overcast,180,2012-12-12 08:53:00
1:53 AM,39.0,36.0,89,29.60,10.0,South,3.5,-,N/A,,Overcast,190,2012-12-12 09:53:00
2:53 AM,39.0,36.0,89,29.61,10.0,Calm,Calm,-,N/A,,Overcast,0,2012-12-12 10:53:00
3:53 AM,37.9,35.1,89,29.62,10.0,SSW,6.9,-,N/A,,Overcast,210,2012-12-12 11:53:00
4:53 AM,39.0,35.1,86,29.63,10.0,WSW,13.8,-,N/A,,Overcast,240,2012-12-12 12:53:00
5:53 AM,39.0,34.0,82,29.67,10.0,West,6.9,-,N/A,,Overcast,260,2012-12-12 13:53:00
6:53 AM,37.9,33.1,83,29.69,10.0,West,9.2,-,N/A,,Overcast,280,2012-12-12 14:53:00
7:53 AM,39.9,32.0,73,29.71,10.0,Calm,Calm,-,N/A,,Overcast,0,2012-12-12 15:53:00
8:53 AM,39.0,32.0,76,29.74,10.0,Variable,4.6,-,N/A,,Mostly Cloudy,0,2012-12-12 16:53:00
9:53 AM,39.9,33.1,77,29.76,10.0,SSW,6.9,-,N/A,,Scattered Clouds,200,2012-12-12 17:53:00
10:53 AM,42.1,32.0,67,29.78,10.0,SW,4.6,-,N/A,,Mostly Cloudy,220,2012-12-12 18:53:00
11:53 AM,43.0,33.1,68,29.79,10.0,West,17.3,-,N/A,,Overcast,270,2012-12-12 19:53:00
12:53 PM,43.0,33.1,68,29.80,10.0,West,13.8,-,N/A,,Overcast,270,2012-12-12 20:53:00
1:53 PM,43.0,34.0,71,29.80,10.0,West,10.4,-,N/A,,Overcast,280,2012-12-12 21:53:00
2:53 PM,42.1,34.0,73,29.82,10.0,WNW,8.1,-,N/A,,Mostly Cloudy,290,2012-12-12 22:53:00
3:53 PM,39.9,32.0,73,29.85,10.0,West,8.1,-,N/A,,Overcast,260,2012-12-12 23:53:00
4:53 PM,37.9,30.0,73,29.86,10.0,West,3.5,-,N/A,,Mostly Cloudy,270,2012-12-13 00:53:00
5:53 PM,35.1,30.9,85,29.88,10.0,West,9.2,-,N/A,,Mostly Cloudy,270,2012-12-13 01:53:00
6:53 PM,37.0,30.9,79,29.90,10.0,Calm,Calm,-,N/A,,Overcast,0,2012-12-13 02:53:00
7:53 PM,37.0,30.9,79,29.92,10.0,South,4.6,-,N/A,,Mostly Cloudy,180,2012-12-13 03:53:00
8:53 PM,36.0,32.0,86,29.94,10.0,South,5.8,-,N/A,,Overcast,180,2012-12-13 04:53:00
9:53 PM,34.0,30.9,89,29.95,10.0,SSE,4.6,-,N/A,,Clear,150,2012-12-13 05:53:00
10:53 PM,34.0,32.0,92,29.96,10.0,South,4.6,-,N/A,,Clear,180,2012-12-13 06:53:00
11:53 PM,30.9,30.0,96,29.98,10.0,East,3.5,-,N/A,,Scattered Clouds,90,2012-12-13 07:53:00